Location: Unspecified
(0.0000°N, 0.0000°E)
Time: 19:13:20
(UTC+00:00)

Explorer 11/Cluster Stage 4 - All Passes

Search period start: 31 October 2014 00:00
Search period end: 10 November 2014 00:00
Orbit: 468 x 1280 km, 28.8° (Epoch: 30 October)

Date Brightness Start Highest point End Pass type
(mag) Time Alt. Az. Time Alt. Az. Time Alt. Az.
31 Oct - 00:49:19 10° NNW 00:54:56 29° NNE 01:01:27 10° E night (unlit)
31 Oct - 02:37:02 10° WNW 02:44:25 87° SSW 02:52:48 10° ESE visible
31 Oct - 04:27:31 10° W 04:34:25 31° SSW 04:41:33 10° SSE visible
31 Oct - 06:23:01 10° SW 06:25:10 11° SSW 06:27:16 10° S daylight
31 Oct - 11:57:41 10° S 11:59:19 11° SSE 12:00:52 10° SE daylight
31 Oct - 13:44:10 10° SW 13:48:46 44° SSE 13:52:35 10° ENE daylight
31 Oct - 15:33:58 10° W 15:37:11 23° NNW 15:40:08 10° NNE daylight
01 Nov - 00:41:55 10° NNW 00:47:40 34° NNE 00:54:28 10° E night (unlit)
01 Nov - 02:29:54 10° WNW 02:37:05 73° SSW 02:45:22 10° SE visible
01 Nov - 04:20:49 10° WSW 04:27:12 26° SSW 04:33:50 10° SSE visible
01 Nov - 11:49:04 10° SSW 11:52:23 15° SSE 11:55:20 10° ESE daylight
01 Nov - 13:36:44 10° SW 13:41:43 64° SSE 13:45:45 10° ENE daylight
01 Nov - 15:27:22 10° WNW 15:30:06 17° NNW 15:32:37 10° N daylight
02 Nov - 00:34:34 10° NW 00:40:21 41° NNE 00:47:22 10° E night (unlit)
02 Nov - 02:22:52 10° WNW 02:29:46 60° SSW 02:37:50 10° SE visible
02 Nov - 04:14:15 10° WSW 04:20:00 22° SSW 04:26:02 10° SSE visible
02 Nov - 11:40:59 10° SSW 11:45:23 20° SSE 11:49:09 10° ESE daylight
02 Nov - 13:29:21 10° WSW 13:34:36 89° SSE 13:38:48 10° ENE daylight
02 Nov - 15:21:01 10° WNW 15:22:59 13° NNW 15:24:51 10° N daylight
02 Nov - 22:42:23 10° NNE 22:44:04 11° NNE 22:45:49 10° NE night (unlit)
03 Nov - 00:27:17 10° NW 00:33:03 50° NNE 00:40:10 10° ESE night (unlit)
03 Nov - 02:15:54 10° WNW 02:22:29 48° SSW 02:30:13 10° SE visible
03 Nov - 04:07:51 10° WSW 04:12:52 18° SSW 04:18:07 10° SSE visible
03 Nov - 11:33:04 10° SSW 11:38:21 27° SSE 11:42:43 10° E daylight
03 Nov - 13:22:02 10° WSW 13:27:27 68° NNW 13:31:45 10° NE daylight
03 Nov - 22:34:18 10° N 22:36:54 14° NNE 22:39:44 10° ENE night (unlit)
04 Nov - 00:20:03 10° NW 00:25:44 63° NNE 00:32:53 10° ESE night (unlit)
04 Nov - 02:09:02 10° W 02:15:14 39° SSW 02:22:31 10° SE visible
04 Nov - 04:01:38 10° SW 04:05:45 15° SSW 04:10:03 10° SSE visible
04 Nov - 09:38:11 10° S 09:41:02 12° SSE 09:43:41 10° SE daylight
04 Nov - 11:25:17 10° SW 11:31:15 35° SSE 11:36:05 10° E daylight
04 Nov - 13:14:47 10° WSW 13:20:15 51° NNW 13:24:36 10° NE daylight
04 Nov - 22:26:33 10° N 22:29:42 17° NNE 22:33:15 10° ENE night (unlit)
05 Nov - 00:12:53 10° NW 00:18:26 78° NNE 00:25:29 10° ESE night (unlit)
05 Nov - 02:02:16 10° W 02:08:00 32° SSW 02:14:44 10° SE visible
05 Nov - 03:55:47 10° SW 03:58:41 12° SSW 04:01:41 10° S visible
05 Nov - 09:29:44 10° SSW 09:33:59 16° SSE 09:37:52 10° SE daylight
05 Nov - 11:17:33 10° SW 11:24:05 45° SSE 11:29:18 10° E daylight
05 Nov - 13:07:36 10° W 13:13:01 39° NNW 13:17:22 10° NE daylight
05 Nov - 22:18:58 10° NNW 22:22:28 20° NNE 22:26:32 10° E night (unlit)
06 Nov - 00:05:47 10° WNW 00:11:09 84° SSW 00:18:01 10° ESE night (unlit)
06 Nov - 01:55:38 10° WSW 02:00:50 25° SSW 02:06:51 10° SSE visible
06 Nov - 09:21:35 10° SSW 09:26:53 20° SSE 09:31:37 10° ESE daylight
06 Nov - 11:09:53 10° SW 11:16:52 59° SSE 11:22:23 10° ENE daylight
06 Nov - 13:00:29 10° W 13:05:44 31° NNW 13:10:02 10° NNE daylight
06 Nov - 22:11:29 10° NNW 22:15:13 25° NNE 22:19:39 10° E night (unlit)
06 Nov - 23:58:45 10° WNW 00:03:54 65° SSW 00:10:28 10° SE night (unlit)
07 Nov - 01:49:09 10° WSW 01:53:41 20° SSW 01:58:51 10° SSE visible
07 Nov - 09:13:34 10° SSW 09:19:43 24° SSE 09:25:09 10° ESE daylight
07 Nov - 11:02:17 10° SW 11:09:35 75° SSE 11:15:22 10° ENE daylight
07 Nov - 12:53:27 10° W 12:58:27 25° NNW 13:02:37 10° NNE daylight
07 Nov - 22:04:04 10° NNW 22:07:57 31° NNE 22:12:38 10° E night (unlit)
07 Nov - 23:51:49 10° WNW 23:56:40 49° SSW 00:02:50 10° SE night (unlit)
08 Nov - 01:42:53 10° SW 01:46:34 16° SSW 01:50:41 10° SSE visible
08 Nov - 07:19:01 10° S 07:21:41 12° SSE 07:24:18 10° SE daylight
08 Nov - 09:05:39 10° SSW 09:12:29 30° SSE 09:18:29 10° E daylight
08 Nov - 10:54:43 10° WSW 11:02:15 88° NNW 11:08:14 10° ENE daylight
08 Nov - 12:46:31 10° W 12:51:09 21° NNW 12:55:06 10° NNE daylight
08 Nov - 21:56:44 10° NW 22:00:41 41° NNE 22:05:31 10° ESE night (unlit)
08 Nov - 23:44:58 10° W 23:49:29 37° SSW 23:55:07 10° SE night (unlit)
09 Nov - 01:37:01 10° SW 01:39:30 12° SSW 01:42:08 10° S visible
09 Nov - 07:10:34 10° S 07:14:33 14° SSE 07:18:27 10° SE daylight
09 Nov - 08:57:48 10° SW 09:05:11 37° SSE 09:11:39 10° E daylight
09 Nov - 10:47:14 10° WSW 10:54:51 72° NNW 11:01:01 10° NE daylight
09 Nov - 12:39:42 10° WNW 12:43:50 18° NNW 12:47:28 10° N daylight
09 Nov - 21:49:28 10° NW 21:53:26 55° NNE 21:58:17 10° ESE night (unlit)
09 Nov - 23:38:13 10° W 23:42:20 28° SSW 23:47:17 10° SSE night (unlit)
